Temp
7 7 10 10 9 7 7 7 6 6 6 6 6 7 7 8 6 7 7 7 7 8
6 7 9 9 8 8 7 7 6 5 5 6 6 7 8 7 6 7 7 7 7 8
7 7 8 8 8 7 7 6 5 5 5 6 7 7 7 6 6 6 6 7 7 8
6 7 8 7 7 6 6 6 4 5 4 5 6 6 6 6 6 6 6 6 7 7
6 6 6 6 5 6 6 4 4 4 4 5 5 5 5 6 6 5 6 7 7 7
5 5 5 5 5 5 3 3 3 3 3 5 5 4 4 5 5 6 6 6 6 6
5 5 5 5 4 3 3 3 2 2 3 4 4 4 4 5 5 5 6 5 5 5
4 4 3 3 3 3 1 1 2 2 3 3 4 3 4 4 5 5 6 4 5 4
4 3 3 3 2 2 2 2 2 3 3 3 3 3 4 5 5 4 4 4 4 4
3 3 2 1 1 1 1 1 3 3 3 2 3 3 4 3 4 4 4 4 4 4
2 1 1 1 1 1 2 2 3 2 2 3 3 3 3 3 3 3 4 4 3 3
0 0 1 1 2 2 2 2 2 2 2 3 2 2 3 3 3 4 4 3 2 3
0 1 2 2 2 2 2 2 2 2 2 2 2 2 2 3 3 3 3 3 3 3
1 2 1 2 2 2 2 2 1 1 1 2 2 2 2 1 2 3 3 2 2 1
Height
1405 1411 1419 1425 1431 1439 1446 1453 1456 1463 1468 1474 1477 1481 1483 1489 1499 1504 1505 1511 1514 1513
1399 1408 1414 1422 1430 1436 1442 1448 1455 1460 1467 1472 1476 1481 1479 1488 1496 1499 1503 1508 1511 1512
1397 1406 1414 1420 1426 1432 1439 1444 1451 1457 1464 1471 1474 1479 1480 1484 1492 1497 1504 1506 1510 1509
1398 1405 1412 1417 1423 1430 1436 1442 1448 1456 1464 1471 1475 1479 1480 1484 1489 1495 1503 1507 1508 1509
1399 1405 1412 1417 1423 1430 1435 1442 1449 1455 1465 1471 1476 1478 1480 1481 1489 1499 1502 1505 1507 1509
1401 1406 1411 1416 1422 1428 1435 1441 1450 1458 1465 1471 1476 1478 1479 1484 1494 1496 1500 1505 1508 1509
1400 1405 1412 1416 1423 1428 1437 1444 1451 1457 1466 1472 1476 1479 1484 1485 1495 1496 1497 1505 1507 1507
1399 1406 1411 1416 1424 1432 1440 1447 1454 1461 1468 1475 1478 1483 1486 1489 1494 1495 1498 1506 1505 1509
1401 1408 1412 1418 1426 1435 1443 1451 1458 1464 1471 1476 1482 1485 1488 1489 1495 1497 1502 1504 1506 1507
1403 1408 1415 1422 1429 1437 1445 1453 1460 1467 1474 1481 1483 1484 1487 1494 1497 1499 1502 1504 1505 1507
1406 1414 1420 1428 1435 1442 1450 1456 1464 1472 1478 1480 1482 1488 1493 1495 1498 1499 1501 1504 1505 1506
1415 1420 1426 1433 1440 1447 1453 1462 1468 1474 1479 1482 1488 1493 1494 1495 1498 1498 1501 1504 1507 1508
1423 1428 1433 1439 1445 1452 1460 1467 1473 1477 1483 1488 1490 1491 1494 1497 1498 1500 1502 1505 1507 1507
1431 1435 1440 1446 1453 1459 1465 1470 1476 1481 1484 1488 1491 1494 1497 1498 1499 1501 1502 1504 1505 1507
Wind_Speed
40 47 40 34 35 39 34 36 34 31 28 29 28 28 28 24 23 24 24 26 23 20
39 41 37 30 27 34 36 37 34 30 27 28 26 27 27 24 22 21 20 20 19 18
34 35 30 30 29 35 39 40 37 33 27 25 25 24 23 22 21 21 21 20 19 16
34 34 29 30 30 31 39 37 35 34 29 29 25 24 23 23 23 22 21 19 15 13
30 29 30 28 26 29 37 35 33 30 29 27 26 25 26 26 25 25 21 17 14 12
26 28 25 26 24 30 38 36 35 33 25 27 25 26 26 27 25 21 18 15 13 11
25 27 27 27 28 32 32 32 29 26 28 27 26 26 27 25 23 20 17 13 11 8
29 28 30 32 36 35 32 31 29 28 27 28 28 29 27 24 20 17 16 14 11 9
27 29 32 38 39 36 34 29 30 30 30 30 28 25 22 18 18 17 14 12 10 7
38 39 39 40 38 34 32 31 30 29 29 29 26 22 20 18 17 15 14 11 8 6
39 38 38 36 34 35 34 32 32 31 29 26 23 20 20 17 15 14 12 9 7 4
35 32 34 35 35 32 31 28 29 27 25 24 23 19 17 15 14 11 9 7 4 2
31 32 33 30 29 28 25 31 29 26 22 20 20 17 15 13 11 9 7 5 2 3
28 29 27 27 27 29 30 29 27 24 21 18 16 17 14 12 9 7 5 3 3 5
Wind_Direction
211 218 219 217 214 205 215 210 200 194 192 193 197 198 192 198 213 214 210 213 221 219
202 210 208 210 205 208 205 205 196 188 187 187 185 187 181 187 198 196 195 196 194 188
195 205 204 197 208 209 208 202 198 190 179 184 180 179 170 170 180 179 177 176 178 173
194 201 203 199 206 206 211 199 187 181 176 186 179 178 170 170 171 172 173 172 173 170
200 199 202 200 198 208 198 183 174 170 177 181 179 173 169 163 164 170 167 166 165 167
202 198 198 189 208 200 181 176 171 169 173 173 172 168 163 160 165 165 165 164 162 159
201 192 194 196 189 170 164 156 154 162 177 175 169 166 164 159 164 160 155 160 154 147
183 186 182 184 171 161 159 163 166 166 169 168 166 169 163 161 161 158 155 159 149 146
185 182 179 161 156 159 159 157 162 164 168 166 166 160 158 157 160 155 156 152 142 136
169 160 149 150 149 151 157 162 161 166 164 164 160 156 155 160 157 154 151 144 140 129
148 149 149 148 154 154 156 157 160 162 164 160 152 157 160 157 157 152 148 141 122 103
156 146 150 152 151 152 153 158 160 158 159 160 156 161 158 155 156 143 137 131 131 95
139 144 145 142 143 146 159 155 156 156 159 161 157 151 154 154 143 141 139 140 113 29
146 143 138 144 153 159 157 155 156 155 153 154 154 152 154 145 141 142 128 89 26 355